Regional Weather Roundup
Issued by NWS Wakefield, VA

Home | Current Version | Previous Version | Graphics & Text | Print | Product List | Glossary On
Versions: 1 2 3 4 5 6 7 8 9 10 11 12 13 14 15 16 17 18 19 20 21 22 23 24 25 26 27 28 29 30 31 32 33 34 35 36 37 38 39 40 41 42 43 44 45 46 47 48 49 50
000
ASUS41 KAKQ 211814
RWRAKQ

REGIONAL WEATHER ROUNDUP
NATIONAL WEATHER SERVICE WAKEFIELD VA
100 PM EST TUE NOV 21 2017

Note: "fair" indicates few or no clouds below 12,000 feet with no
significant weather and/or obstructions to visibility. * = Denotes
station may not report precipitation (e.g., rain,snow,etc.),
thunder or fog.

VAZ042-051-052>054-056-211900-
NORTHERN VIRGINIA

CITY           SKY/WX    TMP DP  RH WIND       PRES   REMARKS
WASH NATIONAL  CLOUDY    60  35  39 SW18      30.06F
DULLES         PTSUNNY   57  33  40 S10       30.04F
FORT BELVOIR   CLOUDY    60  36  40 S10       30.06F
QUANTICO       PTSUNNY   60  38  43 SW15G22   30.09F
FREDERICKSBRG* PTSUNNY   60  40  47 SW9       30.08F
STAFFORD*      MOSUNNY   59  36  42 SW14G20   30.12F
WARRENTON      NOT AVBL
CULPEPER*      MOSUNNY   59  32  36 SW15      30.07F
MANASSAS*      CLOUDY    58  35  42 SW10G18   30.06F
LEESBURG*      CLOUDY    55  34  44 S8        30.05F
WINCHESTER     PTSUNNY   54  30  40 SW8       30.02F
FRONT ROYAL*   CLOUDY    59  28  31 SW10G21   30.01F
LURAY*         PTCLDY    59  28  31 S14G22    30.02F
$$

VAZ048-049-060>072-079>083-211900-
CENTRAL AND SOUTH CENTRAL VIRGINIA

CITY           SKY/WX    TMP DP  RH WIND       PRES   REMARKS
RICHMOND       CLOUDY    60  38  43 S13       30.13F
CHESTERFIELD*  NOT AVBL
PETERSBURG*    CLOUDY    61   1   9 S6        30.15F
HANOVER        CLOUDY    62  37  39 S9        30.13F
TAPPAHANNOCK*    N/A    N/A N/A N/A MISG        N/A
QUINTON*       FAIR      60  40  48 S8G18     30.14F
CHARLOTTSVILLE MOSUNNY   56  34  43 S15       30.06F
GORDONSVILLE*  PTCLDY    56  37  47 SW13G18   30.07F
ORANGE*        CLOUDY    57  36  44 SW9G17    30.07F
LOUISA*        MOSUNNY   60  38  43 SW9G17    30.12F
BUMPASS*       FAIR      60  36  40 SW13G18   30.09F
FARMVILLE*     MOSUNNY   58  35  42 S13       30.11F
CREWE*         FAIR      59  36  42 S8        30.13F
FORT PICKETT*  FAIR      59  38  44 S12       30.13F
CHASE CITY*    FAIR      58  39  49 S5        30.12F
CLARKSVILLE*   FAIR      59  43  55 S7        30.13F
SOUTH HILL*    CLOUDY    61  43  51 S10       30.19F
LAWRENCEVILLE* FAIR      63  40  43 S8        30.14F
EMPORIA*       CLOUDY    61  39  44 S9        30.17F
$$

VAZ088>098-211900-
SOUTHEAST VIRGINIA

CITY           SKY/WX    TMP DP  RH WIND       PRES   REMARKS
NORFOLK        SUNNY     64  35  34 S12       30.18F
VIRGINIA BEACH PTSUNNY   62  41  46 SW9       30.18F
NORFOLK NAVAL  PTSUNNY   64  29  26 SW10      30.18F
WEST POINT*    CLOUDY    61  38  41 S9        30.16F
SALUDA*        FAIR      61  41  48 S9        30.15F
NEWPORT NEWS   SUNNY     62  34  35 S10       30.17F
LANGLEY AFB    PTSUNNY   62  31  30 S12       30.17F
FORT EUSTIS    SUNNY     62  38  41 S8        30.14F
WILLIAMSBURG*  SUNNY     64  43  45 S9        30.16F
HR EXEC AP*    NOT AVBL
FRANKLIN*      SUNNY     63  38  39 S7        30.17F
US460-WAKEFLD  SUNNY     63  42  46 S9        30.15F
$$

VAZ020-022-025-037-045-211900-
WEST CENTRAL AND SOUTHWEST VIRGINIA

CITY           SKY/WX    TMP DP  RH WIND       PRES   REMARKS
STAUNTON*      CLOUDY    58  34  40 SW13      30.06F
WAYNESBORO*    PTCLDY    57  39  50 SW12G21   30.04F
HOT SPRINGS VA CLOUDY    52  26  36 W14       30.05F
LYNCHBURG      CLOUDY    56  39  53 S12G24    30.09F
DANVILLE       MOSUNNY   61  39  44 SW9       30.12F
SOUTH BOSTON*  FAIR      61  33  35 S5        30.12F
MARTINSVILLE   CLOUDY    56  34  43 CALM      30.13F
ROANOKE        PTSUNNY   53  35  50 CALM      30.10F
BLACKSBURG     SUNNY     53  40  61 W3        30.09F
DUBLIN*        CLOUDY    50  36  57 CALM      30.08F
MARION*        SUNNY     58  33  39 W7        30.08F
HILLSVILLE*    PTSUNNY   52  45  77 S13G21    30.08S
RICHLANDS*     FAIR      57   6  12 SW12G23   30.06S
WISE*          CLOUDY    59  39  47 S16G26    30.06F
ABINGDON*      SUNNY     62  43  51 W14       30.06F
$$

MDZ021>025-VAZ099-100-211900-
SOUTHERN MARYLAND AND THE DELMARVA PENINSULA

CITY           SKY/WX    TMP DP  RH WIND       PRES   REMARKS
PATUXENT RIVER CLOUDY    59  37  44 S12       30.10F
BAY BRIDGE APT CLOUDY    57  36  44 S14G20    30.08F
LEONARDTOWN    CLOUDY    55  36  47 SW12G21   30.11F
DOVER          PTSUNNY   60  33  36 S15       30.08F
GEORGETOWN     CLOUDY    60  28  29 S16       30.12F
EASTON         PTSUNNY   57  32  38 S14G20    30.13F
CAMBRIDGE      SUNNY     55  36  47 S12G20    30.11F
SALISBURY      CLOUDY    58  36  43 S10       30.13F
OCEAN CITY     MOSUNNY   55  39  54 SW9G20    30.16F
WALLOPS ISLAND CLOUDY    58  37  45 S13       30.16F
ACCOMACK*      MOSUNNY   62  38  40 SW9       30.16F
$$

NCZ012>017-030>032-211900-
NORTH CENTRAL AND EASTERN NORTH CAROLINA

CITY           SKY/WX    TMP DP  RH WIND       PRES   REMARKS
ROANOKE RAPIDS FAIR      63  41  45 S8        30.17F
RALEIGH        CLOUDY    63  44  50 S5        30.14F
ELIZABETH CITY MOSUNNY   61  47  59 SW3       30.20F
AHOSKIE*       CLOUDY    60  38  45 CALM      30.18F
EDENTON*       MOSUNNY   61  46  56 CALM      30.21F
CURRITUCK*     CLOUDY    60  44  53 SW3       30.21F
KILL DEVIL HLS MOSUNNY   56  43  60 CALM      30.20F
MANTEO         MOSUNNY   59  46  61 N3        30.21F
CAPE HATTERAS  CLOUDY    64  52  64 NE3       30.19F
TARBORO*       NOT AVBL
GOLDSBORO      CLOUDY    64  45  50 SE6       30.15F
WASHINGTON     CLOUDY    61  46  56 CALM      30.19F
GREENVILLE     CLOUDY    63  41  45 CALM      30.19F
NEW BERN       CLOUDY    61  49  64 NE3       30.19F
WILMINGTON     CLOUDY    67  51  56 E9        30.13F
$$

VAZ048-211900-
ELSEWHERE

CITY           SKY/WX    TMP DP  RH WIND       PRES   REMARKS
HARRISBURG PA  MOSUNNY   56  31  38 S3        30.01F
BALTIMORE      CLOUDY    60  33  36 SW13G18   30.04F
ANNAPOLIS      CLOUDY    60  36  40 SW8G28    30.06F
ANDREWS AFB    CLOUDY    59  33  38 SW16G26   30.05F
PHILADELPHIA   PTSUNNY   57  29  34 S15G25    30.08F
HENDERSON NC   CLOUDY    59  41  52 SW7       30.14F
GREENSBORO     CLOUDY    60  38  43 SW5       30.10F
ROCKY MOUNT    CLOUDY    61  42  49 SE5       30.17F
$$

VAZ100-211900-
MARINE

STATION/POSITION TIME  TEMP    WIND        PRES    WAVE   SWELL
                       AIR SEA DIR/SP/G            HT/PER HT/PER
                 (UTC) (F)     (DEG/KT/KT) (MB)    (FT/S) (FT/S)
BRANDYWINE LGT   1742   57     230/ 23/ 25 1020.0F
CAPE MAY NJ      1748   56 48  210/ 11/ 15 1019.6F
LEWES DE         1748   59 51  210/ 10/ 15 1019.7F
15NM E FENWICK I 1750   55 57  200/ 17/ 21 1021.6F   4/ 6
OCEAN-CITY-INLET 1748   55 54  220/ 13/ 15 1021.5F
WACHAPREAGUE VA  1748   56 50  200/ 11/ 15 1022.0F
THOMAS POINT MD  1800   56 52  190/ 19/ 21   N/A
GOOSES REEF MD   1730   56     190/ 12/ 16 1027.4F
COVE POINT MD    1748   57     210/ 16/ 21 1019.9F
SOLOMONS ISLAND  1736   56 53  210/ 14/ 18 1019.3F
BISHOPS HEAD MD  1748   52 48  180/ 17/ 20 1020.3F
PINEY POINT MD   1748          230/ 13/ 16   N/A
POTOMAC MD       1730   57     210/ 10/ 14 1019.9F
CAMBRIDGE MD     1742   56 50              1020.2F
LEWISETTA VA     1748   59 50  230/ 13/ 16 1019.8F
RAPPAHANNOCK LGT 1748          180/ 17/ 19 1022.0F
STINGRAY PT      1730   57     240/ 10/ 14 1021.8F
YORK RVR RNG VA  1748   57     200/ 11/ 12 1022.0F
YORKTOWN VA      1748   60 54  200/  9/ 12 1021.1F
JAMESTOWN VA     1730          200/  8/ 10   N/A
DOMINION TERM VA 1748   57     220/  5/  6 1021.9F
KIPTOPEKE VA     1748      53  190/  8/  9   N/A
CAPE HENRY VA    1748   60     210/  6/ 10   N/A
WILLOUBY STN VA  1742   62     210/ 10/ 13 1021.5F
S CRANEY ISL VA  1748   62     210/  6/ 10 1021.8F
CAPE HENRY BUOY  1700      60                N/A     1/ 3
1ST LANDING BUOY 1730   58     220/ 10/ 12 1022.7F
CAPE CHARLES BUO 1751      56                N/A     1/ 3
64NM E OF VA BCH 1750   59 61  250/  4/  6 1023.7F   2/ 3   2/ 8
DUCK PIER NC     1748   57 59  260/  5/  6 1022.5F
44100 DUCK FRF   1745      61                N/A     1/ 9
44056 DUCK FRF   1700      61                N/A     1/ 9
OREGON INLET NC  1742   63 52   90/  2/  3 1022.8F
HATTERAS NC      1748   58 57   30/  6/  6 1022.2F
DIAMOND SHLS NC  1800   70 77  170/ 12/ 16 1022.4
CAPE LOOKOUT NC  1800           30/ 11/ 13 1021.4F
$$



USA.gov is the U.S. government's official web portal to all federal, state and local government web resources and services.